Lapse_Rate
5.7 5.8 5.8 5.8 5.9 6.0 6.1 6.1 6.2 6.2 6.2 6.2 6.2 6.1 6.1 6.1 6.1 6.0 6.3 6.5 6.5 6.9 7.4 7.0 6.8 6.8 6.8 6.8 6.6 6.7 6.9 7.1 7.5 7.2 7.2 7.3 7.3 7.4 7.1 7.0 7.1 7.1 7.0 7.1 7.1 6.9 6.6 7.2 6.9 7.0 7.0 7.2 7.7 8.1
5.7 5.8 5.8 5.9 5.9 6.0 6.1 6.2 6.2 6.2 6.2 6.1 6.0 5.9 5.8 5.8 5.9 6.0 5.7 5.9 6.3 6.7 7.2 6.9 7.0 6.8 6.7 7.0 7.0 7.0 6.9 6.8 6.9 6.9 6.9 6.8 6.8 6.8 6.9 7.0 7.0 6.6 7.0 7.1 7.0 7.0 7.5 6.7 6.3 6.8 7.0 6.8 7.7 7.8
5.7 5.8 5.8 5.8 5.9 5.9 6.0 6.1 6.2 6.2 6.1 6.0 5.9 5.8 5.7 5.7 5.7 5.7 5.6 5.9 5.9 6.3 7.1 7.3 6.9 6.7 6.6 6.6 6.4 7.0 7.1 6.7 6.8 7.0 6.6 6.5 6.5 6.7 6.8 6.9 7.0 7.1 7.2 6.8 6.7 7.5 7.2 7.2 6.6 6.7 6.4 6.5 7.2 7.6
5.6 5.7 5.8 5.9 6.0 6.0 6.0 6.1 6.2 6.2 6.0 5.9 5.9 5.7 5.6 5.6 5.6 5.7 5.8 5.9 6.1 6.2 6.7 6.7 6.7 6.6 6.1 6.5 6.4 6.8 6.7 6.8 6.9 6.6 6.5 6.3 6.4 6.6 6.8 6.9 6.8 6.9 6.7 6.6 6.7 7.1 6.9 7.2 7.0 6.3 6.4 6.3 6.2 6.3
5.5 5.6 5.7 5.8 5.9 6.0 6.0 6.1 6.2 6.2 6.0 5.8 5.8 5.7 5.7 5.6 5.6 5.7 5.8 5.8 5.9 6.1 6.6 7.1 6.7 6.7 6.9 6.6 6.4 6.6 6.7 6.8 6.7 6.4 6.7 6.6 6.5 6.6 6.7 6.6 6.6 6.8 6.8 6.6 6.6 7.3 6.9 7.0 6.7 6.4 6.7 6.5 6.3 6.6
5.3 5.4 5.6 5.7 5.8 5.9 6.0 5.9 6.1 6.1 5.9 5.7 5.7 5.9 5.7 5.7 5.8 5.9 6.1 5.9 6.0 6.2 6.6 7.0 6.8 6.5 6.8 6.9 6.7 6.8 6.6 6.8 6.7 6.5 6.5 6.7 6.4 6.3 6.2 6.4 6.7 6.9 6.8 6.9 6.7 7.1 7.5 7.3 7.0 6.9 6.8 6.4 6.4 6.8
5.1 5.4 5.4 5.4 5.6 5.8 6.0 6.0 6.0 6.0 5.9 5.8 5.9 5.8 5.8 5.8 5.8 5.8 5.9 6.1 6.2 6.3 6.5 6.7 6.5 6.4 6.6 6.6 6.5 6.6 6.6 6.5 6.7 6.8 6.5 6.4 6.5 6.5 6.2 5.9 6.9 6.9 6.8 6.7 6.5 7.0 7.1 7.5 7.3 7.1 6.8 6.4 6.4 6.1
5.0 5.2 5.3 5.3 5.4 5.5 5.8 6.0 6.0 6.0 5.9 5.9 6.0 5.9 5.9 5.8 5.6 5.8 6.0 6.1 6.2 6.3 6.3 6.2 6.0 6.3 6.4 6.7 6.7 6.7 6.7 6.8 6.5 6.4 6.6 6.7 6.6 6.6 6.1 6.8 7.1 7.0 6.7 6.6 6.6 6.8 6.8 7.0 7.3 5.9 6.0 6.2 6.6 6.5
5.2 5.3 5.3 5.3 5.3 5.4 5.6 5.9 5.9 5.9 5.9 6.0 5.9 5.9 5.9 5.7 5.7 6.0 6.0 6.1 6.2 6.3 6.3 6.0 5.7 5.8 6.1 6.2 6.5 6.7 6.6 6.8 7.1 6.9 6.7 6.8 6.6 6.4 6.7 7.1 6.4 6.4 6.5 6.8 6.6 6.9 6.8 6.8 6.6 6.2 6.5 6.0 6.0 6.0
5.1 4.9 5.1 5.1 5.2 5.3 5.5 5.7 5.8 5.8 5.8 5.9 5.9 5.9 6.0 5.9 5.9 6.0 6.1 6.1 6.2 6.5 6.4 6.2 6.0 5.9 5.9 5.9 6.3 6.4 6.4 6.6 6.8 7.4 6.5 6.5 6.8 6.8 6.7 6.9 6.6 6.8 7.0 6.6 6.6 6.7 6.6 6.6 6.6 6.3 6.2 6.1 6.0 6.1
5.5 5.1 5.0 5.1 5.2 5.2 5.4 5.5 5.8 5.7 5.7 5.8 5.8 5.8 5.8 5.7 5.8 5.8 5.8 5.9 6.1 6.3 6.5 6.3 6.2 6.1 5.8 5.8 6.2 6.1 6.3 6.3 6.3 6.0 5.5 6.7 7.0 6.9 6.9 6.7 6.5 6.6 6.6 6.7 6.6 6.4 6.1 6.1 6.5 6.5 6.1 6.1 6.1 6.2
5.5 5.4 5.1 5.0 5.0 5.2 5.2 5.4 5.6 5.7 5.8 5.7 5.6 5.8 5.8 5.5 5.4 5.6 5.7 5.9 5.9 5.9 6.2 6.1 6.0 6.0 5.9 5.6 5.9 5.9 6.1 6.2 6.7 6.5 6.1 6.7 7.1 7.0 7.2 6.8 6.9 6.8 6.6 6.8 6.7 6.8 6.7 6.4 6.2 6.3 6.2 5.9 6.3 6.4
5.3 5.2 5.3 5.2 5.1 5.1 5.1 5.3 5.5 5.6 5.7 5.6 5.5 5.7 5.7 5.4 5.8 5.8 6.1 6.0 6.0 6.1 6.3 6.5 6.6 6.4 6.0 5.7 5.7 5.9 6.0 6.5 6.5 6.8 6.7 6.2 6.5 6.5 6.7 7.0 6.9 6.7 6.6 6.9 6.6 6.5 6.3 6.6 6.4 6.3 6.1 6.3 6.3 6.3
5.3 5.3 5.3 5.2 5.0 5.0 5.0 5.3 5.5 5.6 5.6 5.5 5.4 5.5 5.5 5.7 6.0 6.1 6.2 6.2 6.2 6.3 6.4 6.7 6.6 6.2 6.2 5.9 6.1 6.1 6.5 6.4 6.7 6.7 6.3 6.3 6.1 6.1 6.2 6.3 6.4 6.4 6.4 6.4 6.4 6.0 6.4 6.6 5.8 5.5 5.6 6.3 6.3 6.3
5.2 5.0 4.8 4.8 4.9 5.0 5.1 5.3 5.5 5.6 5.4 5.3 5.3 5.5 6.0 6.0 6.1 6.1 6.1 6.2 6.3 6.5 6.3 6.2 6.6 6.4 5.9 5.9 6.2 6.4 6.5 6.6 6.4 6.2 6.2 5.8 6.0 5.9 6.1 6.6 6.4 6.3 6.2 6.1 6.0 6.0 6.0 6.0 6.0 5.8 5.7 6.1 6.2 6.4
5.2 5.0 4.8 5.0 5.0 5.1 5.2 5.5 5.6 5.6 5.4 5.3 5.7 6.2 6.2 5.9 6.1 6.2 6.3 6.4 6.4 6.4 6.7 6.6 6.2 5.9 5.9 6.1 6.3 6.8 6.6 6.3 5.8 5.8 6.1 6.2 6.4 6.0 6.1 6.2 6.3 6.3 6.3 6.3 6.3 6.2 6.3 6.6 6.5 6.3 6.4 6.4 6.3 6.3
4.9 4.8 4.7 5.1 5.0 5.1 5.5 5.6 5.6 5.5 5.5 5.9 6.2 6.2 6.1 6.1 6.3 6.4 6.5 6.4 6.5 6.5 6.5 6.3 5.9 6.0 5.7 5.9 6.2 6.4 6.3 6.0 6.0 6.0 5.8 6.2 6.3 6.2 6.3 6.3 6.2 6.3 6.4 6.4 6.4 6.4 6.6 6.4 6.5 6.6 6.7 6.8 6.7 6.5
5.1 4.8 4.9 5.0 5.2 5.4 5.6 5.6 5.5 5.6 6.1 6.2 6.2 6.3 6.1 6.0 6.1 6.2 6.3 6.5 6.7 6.5 6.5 6.1 5.6 5.6 5.5 5.5 5.6 5.5 5.5 5.6 5.5 5.6 5.8 6.2 6.0 6.1 6.4 6.3 6.1 6.0 5.9 6.3 6.3 6.4 6.3 6.4 6.6 6.7 6.8 6.8 6.7 6.5
5.1 4.9 4.9 5.3 5.1 5.5 5.6 5.7 5.6 5.8 6.2 6.1 6.3 6.2 6.3 6.3 6.4 6.4 6.4 6.7 6.7 6.7 6.4 6.2 5.8 5.4 5.3 5.1 5.5 5.7 5.7 5.5 5.8 5.7 6.4 6.1 6.0 6.1 6.2 6.1 5.9 5.8 5.6 5.4 5.8 6.3 6.2 6.1 6.2 6.4 6.4 6.3 6.5 6.3
4.8 4.8 5.2 5.3 5.4 5.6 5.5 5.5 5.4 5.6 6.0 5.9 6.3 6.3 6.1 6.3 6.4 5.8 6.4 6.8 6.8 6.6 6.0 5.8 5.6 5.2 5.3 5.5 5.7 5.5 5.6 5.6 5.8 6.3 6.3 6.3 6.1 6.1 6.0 6.2 6.2 6.0 5.7 5.4 5.5 5.9 6.1 6.3 6.3 6.3 6.7 6.6 6.2 6.0
5.3 5.6 5.4 5.5 5.3 5.4 5.4 5.4 5.6 5.7 5.8 6.1 6.1 6.3 6.3 6.3 6.3 6.5 6.9 7.1 6.4 6.1 6.0 6.0 5.5 5.0 5.3 5.1 5.3 5.6 5.6 6.1 5.8 5.8 5.9 5.9 5.9 6.0 5.9 6.1 6.1 6.2 6.1 5.9 5.7 5.7 5.9 6.2 6.1 6.4 6.6 6.5 6.2 6.0
5.4 5.5 5.6 5.6 5.3 5.5 5.6 5.7 5.8 5.9 5.9 6.1 6.3 6.4 6.4 6.4 6.5 6.6 6.8 6.6 6.2 5.8 6.1 5.9 5.6 5.2 5.0 5.3 5.4 5.3 5.4 5.3 5.3 5.5 5.7 5.8 5.8 5.8 5.7 5.5 5.4 5.4 5.5 5.7 5.7 5.7 6.0 6.2 6.1 6.0 5.9 5.9 5.9 5.9
5.5 5.4 5.5 5.4 5.4 5.4 5.7 5.8 5.9 5.9 5.7 6.1 6.2 6.4 6.5 6.6 6.5 6.6 6.6 6.5 6.2 6.4 6.0 5.7 5.4 5.1 5.1 5.3 5.1 5.0 5.0 5.0 5.0 4.9 5.1 5.4 5.3 5.3 5.5 5.4 5.7 6.0 6.2 6.3 6.3 6.2 6.2 5.8 5.5 5.6 5.7 5.9 5.7 5.8
5.4 5.4 5.4 5.4 5.4 5.5 5.6 5.7 5.7 5.7 6.0 6.1 6.3 6.5 6.8 6.9 6.6 6.6 6.8 6.7 6.2 6.4 6.3 6.0 5.7 5.3 5.7 5.4 5.2 5.1 5.3 5.3 5.1 4.8 5.0 4.9 5.0 4.9 5.1 5.3 5.6 5.9 5.8 6.0 6.0 5.8 5.8 5.9 5.8 5.9 5.7 5.7 5.6 5.5
5.5 5.5 5.4 5.4 5.4 5.5 5.6 5.9 6.0 6.2 6.4 6.4 6.5 6.7 6.9 6.8 6.6 6.7 6.7 6.4 6.1 6.4 6.3 6.0 6.0 5.9 6.2 6.1 5.9 5.7 5.8 5.6 5.2 5.4 5.4 5.2 5.3 5.0 4.7 4.8 5.2 5.8 5.9 6.0 6.0 5.9 5.8 5.7 5.7 5.9 5.7 5.7 5.5 5.4
5.5 5.5 5.7 5.8 5.8 5.8 5.9 6.2 6.4 6.4 6.4 6.6 6.8 6.9 6.9 6.8 6.8 7.1 7.1 6.9 6.6 6.5 6.3 6.3 6.3 6.2 6.6 6.4 6.2 6.0 5.9 5.8 5.6 5.8 5.8 5.8 5.5 5.4 5.3 5.3 5.2 4.9 4.9 4.9 5.1 4.9 5.1 5.6 5.2 5.2 5.3 5.3 5.2 5.3
5.6 5.7 6.0 6.0 6.0 6.0 6.0 5.9 6.0 6.1 6.4 6.4 6.8 6.9 6.9 6.8 7.0 7.2 7.3 7.1 6.8 6.7 6.5 6.6 6.4 6.2 6.3 6.1 6.1 6.3 6.1 6.0 5.9 5.6 5.5 5.5 5.6 5.8 5.8 5.6 5.4 5.4 5.4 5.4 5.5 5.5 5.3 5.2 5.3 5.5 5.6 5.6 5.8 5.5
6.0 5.8 6.1 5.8 6.0 5.9 5.9 5.7 6.1 6.3 6.8 6.8 6.6 6.8 6.7 6.9 6.9 7.0 7.2 7.0 6.8 6.6 6.5 6.4 6.3 6.2 6.1 6.1 6.4 6.4 6.4 6.3 6.0 5.9 5.9 6.0 5.9 5.9 6.0 6.0 5.9 5.6 5.5 5.8 5.8 5.8 5.8 5.7 5.5 5.6 5.8 5.9 5.8 5.7
6.4 6.1 5.7 6.0 5.9 5.9 6.1 6.1 6.2 6.3 6.5 6.5 6.4 6.8 6.8 7.1 6.8 6.8 6.7 6.8 7.0 6.7 6.6 6.5 6.3 6.4 6.3 6.5 6.5 6.3 6.5 6.3 6.2 6.1 6.0 6.0 6.1 6.2 6.1 6.1 6.0 5.8 5.6 5.6 5.5 5.4 5.4 5.4 5.6 5.9 5.8 5.8 6.0 6.0
5.8 5.9 6.0 6.0 6.0 6.1 6.4 6.2 6.1 6.2 6.3 6.3 6.6 6.6 7.0 7.1 6.7 6.7 6.9 6.8 6.7 6.8 7.1 6.7 6.5 6.6 6.7 6.5 6.5 6.4 6.3 6.4 6.5 6.0 6.0 6.1 6.0 6.1 6.1 6.1 6.1 6.1 6.0 6.1 5.9 5.8 5.8 6.0 5.9 5.7 5.7 5.7 5.7 5.6
5.9 5.9 5.9 6.1 6.2 6.4 6.4 6.2 6.1 6.1 6.3 6.6 6.4 6.7 6.5 6.3 6.4 6.7 6.9 6.9 6.6 6.6 6.9 6.5 6.7 6.8 6.7 6.6 6.5 6.4 6.5 6.6 6.5 6.2 6.3 6.3 6.3 6.3 6.2 6.0 6.1 6.2 6.1 6.0 6.1 6.1 5.9 5.6 5.8 5.9 5.8 5.6 5.7 5.8
5.9 6.1 6.1 6.2 6.1 6.0 6.0 6.4 6.3 6.3 6.5 6.1 6.2 6.6 6.5 6.5 6.5 6.3 6.5 6.8 6.8 6.8 6.6 6.7 6.9 6.8 6.8 6.7 6.6 6.6 6.6 6.4 6.1 6.2 6.3 6.3 6.3 6.2 6.1 6.1 6.0 5.9 6.1 6.3 6.3 6.2 6.1 6.1 6.1 6.0 6.1 6.2 6.3 6.3
5.9 6.0 6.0 5.9 6.1 6.0 6.0 6.1 6.5 6.4 6.3 6.8 6.9 6.7 6.6 6.6 6.7 6.6 6.8 6.8 6.8 6.7 6.8 6.7 6.8 6.8 6.7 6.9 6.9 6.9 6.7 6.8 6.8 6.7 6.6 6.4 6.3 6.3 6.2 6.1 6.0 6.1 6.2 6.2 6.1 6.1 6.2 6.2 6.3 6.2 6.1 6.2 6.3 6.4
Wind_Speed
11 11 12 13 14 15 15 16 17 17 18 18 17 17 17 16 15 6 4 4 2 3 7 5 4 4 3 0 3 4 6 4 3 2 2 4 3 3 3 3 3 4 4 4 2 3 7 2 2 5 3 7 2 6
13 13 14 14 15 15 16 16 16 17 17 17 17 16 15 14 13 10 2 8 5 3 7 5 15 18 17 22 4 3 5 1 4 3 2 2 2 2 3 3 2 2 6 4 7 6 4 4 7 8 5 8 10 7
13 14 14 15 15 15 16 16 17 17 18 18 18 17 14 12 10 7 3 3 3 3 5 2 6 7 9 14 13 4 3 7 4 4 3 3 2 4 4 5 3 3 3 3 2 5 6 10 8 8 4 8 11 9
13 13 13 15 16 16 16 16 17 18 18 19 18 16 14 13 11 9 1 2 0 3 3 6 5 13 10 7 11 20 13 2 2 3 3 3 2 3 4 4 5 4 5 3 5 8 7 10 4 2 10 12 11 13
13 13 13 14 16 16 16 16 17 18 18 18 18 17 16 15 13 10 6 5 5 1 3 6 15 6 12 9 7 14 14 9 3 1 2 4 3 2 3 1 3 5 7 5 6 10 7 10 2 4 7 5 1 3
14 12 13 14 15 15 16 16 17 18 18 18 18 17 16 15 9 2 2 2 10 3 3 4 5 7 10 7 8 6 2 7 6 5 4 4 5 4 3 3 5 6 7 8 6 5 10 6 8 8 4 5 5 8
15 14 13 14 14 14 15 17 18 19 19 17 17 17 16 12 2 2 2 1 7 2 1 5 5 5 5 5 4 4 4 2 4 3 3 5 4 5 3 9 7 9 12 11 12 3 5 8 7 5 5 9 6 4
15 14 14 13 13 14 15 17 19 20 20 18 17 16 15 5 3 3 3 9 1 1 1 3 5 5 3 4 4 2 3 3 3 3 1 4 0 3 5 8 10 9 14 12 13 9 5 3 7 7 4 4 9 10
15 14 14 14 15 15 16 17 19 22 23 20 16 12 2 1 2 2 6 5 3 2 1 2 2 4 3 2 2 3 2 3 4 2 2 4 3 5 5 4 5 7 12 13 9 3 6 7 11 9 1 3 4 9
15 15 13 14 14 14 14 16 18 24 25 11 3 2 1 1 10 8 2 1 0 2 2 3 3 4 2 2 3 2 1 2 3 3 3 4 6 1 3 4 5 6 4 1 4 4 7 9 9 12 4 7 4 8
15 15 13 13 13 13 12 13 15 22 8 2 3 0 2 4 2 1 2 2 2 3 3 4 5 4 2 2 4 3 2 1 3 3 1 3 2 3 3 1 3 2 4 6 6 4 3 6 5 6 8 5 5 7
15 14 13 13 12 12 11 11 10 4 1 1 3 4 2 1 2 3 3 2 4 4 3 3 5 5 4 1 0 2 3 1 5 1 3 4 2 1 4 0 5 8 7 8 8 7 7 7 6 6 3 4 7 6
14 13 13 13 12 12 11 10 6 6 9 0 2 2 3 2 2 4 3 3 2 3 4 2 4 2 4 1 3 2 3 5 2 1 1 1 2 4 1 4 5 5 7 8 11 10 10 10 8 6 7 6 7 6
15 13 13 12 13 13 11 9 4 2 0 2 3 4 4 4 5 5 4 4 5 2 3 3 3 3 3 2 3 3 4 3 3 2 4 4 6 6 4 4 6 7 8 7 7 8 8 9 9 7 5 4 6 7
14 13 13 15 17 18 11 5 3 2 1 3 3 4 6 5 4 5 3 2 2 1 1 4 2 2 2 3 3 3 4 3 4 3 2 4 8 6 5 5 5 5 6 6 6 8 8 8 7 7 7 6 8 7
12 11 6 8 6 7 9 5 3 2 3 3 5 3 4 2 4 2 2 1 1 1 2 2 1 2 4 2 2 4 3 3 4 4 4 6 5 5 6 6 6 5 4 5 5 6 6 8 8 9 9 7 7 6
7 3 3 6 8 7 5 1 3 3 4 4 4 4 7 4 5 3 2 2 1 3 1 1 1 3 3 2 3 4 2 3 5 7 4 6 6 10 8 6 5 5 4 6 4 6 5 4 6 7 8 1 7 7
3 3 10 5 2 2 2 2 3 4 7 6 4 4 3 3 3 2 3 2 2 2 1 1 1 3 3 3 3 3 5 4 5 7 6 7 6 7 6 5 5 6 6 5 3 3 3 1 4 4 2 4 9 9
2 7 10 2 3 0 2 4 3 4 6 4 5 4 3 3 1 3 3 3 3 3 3 2 2 2 3 2 6 9 8 9 9 8 6 9 8 7 7 6 5 5 6 5 5 2 3 3 3 2 1 2 3 3
13 14 16 8 2 1 3 4 4 4 4 4 2 3 2 2 3 3 1 1 2 3 4 2 2 2 3 7 7 7 9 8 6 6 5 5 5 6 6 6 4 5 5 5 4 1 2 2 3 2 2 3 4 3
5 2 4 8 2 3 3 3 4 4 4 3 3 1 2 2 3 4 4 2 3 1 1 2 2 3 5 6 5 5 6 7 3 2 3 3 5 5 5 5 5 4 2 3 3 2 2 3 1 2 5 5 4 2
2 8 2 2 3 4 4 4 4 4 3 4 3 2 2 3 3 2 2 3 2 3 3 3 2 2 4 5 5 5 6 6 7 6 7 6 8 8 8 6 4 3 3 3 2 4 3 3 3 4 5 4 4 4
5 4 2 4 4 3 6 1 3 4 3 3 2 1 1 2 3 3 2 2 2 2 4 4 4 4 4 6 4 4 2 2 3 4 4 3 3 4 6 8 6 3 3 3 3 4 5 5 5 4 4 5 3 4
1 1 3 4 6 4 3 4 4 3 3 2 2 3 2 3 3 3 3 3 3 5 5 6 4 2 3 4 3 4 4 2 0 3 4 4 4 6 5 7 9 9 6 4 5 7 6 5 5 4 4 4 4 4
2 4 3 5 3 4 4 3 4 2 3 4 4 3 3 2 3 1 1 2 4 7 7 5 5 5 5 4 4 5 7 4 3 4 4 4 2 4 3 6 8 13 10 8 7 7 6 6 5 6 7 7 7 8
4 4 7 4 4 4 5 3 5 6 4 4 5 3 2 3 2 3 3 4 4 6 7 9 9 7 7 7 5 6 6 3 3 3 4 6 5 3 3 3 1 2 2 3 4 6 6 6 5 7 5 3 1 4
4 5 5 5 3 3 3 3 4 3 1 3 2 2 3 3 4 3 2 3 4 5 5 5 7 7 6 4 3 3 3 2 5 4 2 3 4 4 3 3 1 1 4 5 4 5 4 4 4 6 7 8 7 6
5 4 5 4 4 4 4 2 5 4 4 3 1 2 1 5 5 3 4 4 4 4 2 2 3 3 3 2 4 3 2 3 5 4 3 3 3 3 3 3 2 1 6 4 3 5 5 4 4 14 13 12 11 10
4 3 3 6 4 4 3 6 6 4 3 3 4 2 2 2 2 3 2 4 4 4 5 6 5 7 2 3 2 3 3 2 1 3 5 2 1 3 3 3 4 5 7 11 16 13 14 11 13 13 13 11 10 11
5 6 4 4 4 5 4 3 3 1 3 3 3 1 3 2 2 1 1 3 5 4 5 5 4 4 4 4 3 3 4 5 3 4 5 5 5 3 5 5 5 5 5 8 9 11 14 13 12 12 12 9 9 9
3 4 5 5 4 5 7 3 2 3 2 2 2 3 3 3 1 2 3 2 3 4 4 4 4 3 4 5 4 3 4 3 6 8 7 5 5 5 6 5 5 5 5 7 7 8 9 9 9 10 11 11 10 9
3 6 6 5 3 3 3 4 4 1 1 3 2 2 1 2 1 3 4 4 2 4 7 7 5 5 6 3 3 4 7 3 7 7 9 5 5 4 5 5 5 6 7 7 7 6 9 9 7 7 7 9 9 9
4 4 5 3 3 3 2 3 3 3 2 3 2 2 3 5 4 4 2 6 6 5 4 4 4 5 7 7 7 5 6 5 9 11 12 11 12 9 5 5 5 6 8 6 6 7 9 11 8 8 8 8 8 8
Wind_Direction
301 313 323 327 331 334 336 338 337 338 340 341 343 345 348 352 353 5 279 326 77 260 279 230 245 203 325 123 189 291 356 353 344 46 150 244 203 237 109 208 182 150 150 213 153 193 289 73 269 226 245 295 243 208
292 298 306 315 320 325 330 332 331 329 332 335 336 337 341 345 347 357 303 335 332 196 253 278 265 262 248 247 236 230 227 296 258 52 7 0 334 126 163 230 336 225 189 190 180 212 234 221 237 241 233 246 279 259
294 297 301 306 310 315 320 323 324 325 328 330 331 331 330 331 336 340 279 301 343 304 295 326 264 263 229 233 211 180 252 205 256 166 173 242 249 133 164 238 193 257 157 218 44 252 242 285 267 239 230 256 282 288
293 298 303 304 305 308 312 314 317 319 323 326 328 328 325 321 317 308 249 276 328 279 287 282 337 307 282 226 202 208 225 288 154 107 179 214 200 177 219 224 180 193 141 216 266 276 283 275 230 259 288 279 272 278
285 292 299 302 303 304 304 307 311 313 318 324 325 323 321 320 315 286 258 239 223 275 287 287 308 263 289 299 235 194 213 221 196 171 158 218 217 108 258 87 223 186 191 176 228 233 222 272 258 260 263 324 312 325
278 282 292 297 302 304 306 307 309 312 315 322 322 319 320 319 312 2 12 247 227 223 327 310 290 293 301 1 15 12 238 210 190 159 203 213 229 137 246 239 260 206 201 196 231 271 223 244 269 245 261 324 8 303
276 274 282 294 299 303 307 310 308 308 311 316 313 312 318 326 148 173 169 218 344 99 270 297 300 271 315 16 353 342 329 318 169 196 195 187 232 137 190 257 250 228 216 235 246 1 278 201 244 225 221 295 330 307
274 270 274 289 296 297 298 301 304 306 309 310 301 303 309 317 267 313 267 227 283 121 292 290 280 316 7 345 329 0 328 321 274 222 126 180 316 137 247 235 226 226 214 232 250 205 220 341 305 273 155 350 328 284
279 269 269 278 284 292 296 304 308 310 311 305 296 301 337 101 230 232 133 117 70 125 271 289 270 280 344 300 261 319 35 320 302 263 222 132 202 212 240 264 256 216 192 218 234 145 263 269 271 284 321 101 324 356
285 272 269 277 284 289 298 308 316 317 316 325 105 83 277 252 126 112 111 53 123 188 223 248 265 263 39 317 292 331 7 278 307 252 310 169 231 94 197 252 256 345 91 43 107 248 257 261 248 270 272 160 226 107
289 276 267 274 282 286 295 307 322 331 347 7 357 248 267 167 30 192 236 187 168 245 212 233 222 247 282 232 251 193 282 266 311 278 302 270 235 222 243 25 281 161 161 144 191 214 252 231 234 255 274 184 197 132
289 277 269 273 278 280 287 303 328 353 46 237 269 279 290 223 236 233 221 195 196 239 208 214 234 205 277 314 320 260 256 12 249 226 85 300 239 208 274 313 11 356 11 34 31 35 2 29 17 43 280 176 190 176
293 278 269 270 275 274 276 290 305 265 319 153 199 255 140 238 1 225 218 228 214 231 247 238 296 201 326 334 278 268 265 233 317 7 245 311 289 65 165 318 12 342 338 8 17 16 10 13 21 20 340 187 192 199
295 281 271 269 270 269 271 280 277 351 96 223 212 279 192 227 235 211 199 202 239 190 253 249 254 195 207 303 241 267 260 326 286 36 37 341 336 335 7 22 48 11 358 9 8 357 359 1 353 11 344 243 177 198
300 283 276 276 260 259 251 231 205 158 236 247 213 232 224 230 256 247 230 72 305 204 317 319 296 117 262 260 234 347 299 263 32 12 290 304 307 312 342 7 31 24 4 353 350 350 342 336 336 324 300 298 195 193
301 294 242 235 239 155 157 160 164 216 250 235 242 272 275 242 281 326 115 236 270 270 321 69 331 324 259 213 264 244 297 52 3 334 302 300 293 310 325 333 335 324 325 321 326 322 315 329 322 298 298 298 181 160
290 247 147 145 150 156 164 167 177 229 247 256 244 221 248 277 245 215 172 220 265 68 332 12 317 248 310 279 288 10 51 303 297 298 287 271 290 311 310 306 313 322 306 276 288 303 312 326 316 322 317 257 137 125
246 150 149 156 294 188 132 203 242 233 241 238 249 253 239 232 146 182 226 257 106 111 62 271 310 340 286 308 319 288 298 284 263 273 274 283 286 295 312 305 309 303 298 277 247 238 178 344 316 305 283 161 131 119
318 160 178 68 26 204 227 210 205 254 237 240 253 259 225 224 256 113 160 168 155 111 82 18 294 306 299 287 296 298 295 288 281 280 276 280 281 286 303 306 311 317 316 300 295 242 175 220 244 322 346 9 111 107
248 256 253 243 206 236 265 254 180 247 266 240 263 269 219 147 113 21 151 101 85 79 51 42 249 259 271 295 291 283 289 283 272 279 278 286 310 324 314 311 307 307 301 323 306 139 116 45 339 23 101 113 112 109
189 212 141 147 173 218 273 279 261 223 252 239 254 339 126 92 130 185 184 142 70 94 142 226 255 277 274 270 280 306 322 347 356 344 342 329 356 2 351 335 319 317 323 314 273 237 144 101 25 87 104 94 76 68
235 187 157 212 227 213 244 236 239 287 280 252 305 200 179 165 188 210 184 78 107 194 173 188 216 257 293 329 342 335 344 356 23 29 17 15 20 4 345 323 309 300 290 286 283 151 118 86 65 67 81 76 58 60
296 180 230 192 214 210 255 213 233 235 235 256 28 333 228 155 193 167 94 135 129 198 181 193 223 214 242 275 284 284 273 16 13 349 343 318 294 331 349 357 350 317 236 235 237 129 110 107 94 98 90 94 94 73
249 234 226 222 186 247 241 226 217 242 230 191 195 254 204 167 157 51 164 201 224 169 178 197 205 259 279 285 261 266 259 165 253 291 311 318 359 7 350 347 357 1 9 97 117 111 101 90 86 81 80 83 80 89
176 250 157 263 252 224 242 238 228 235 241 199 189 263 220 99 100 106 210 248 166 191 200 193 207 220 218 245 268 262 266 209 199 249 263 241 269 307 351 21 353 20 36 64 63 84 83 81 62 76 76 62 68 60
231 226 179 225 221 204 224 238 195 207 199 196 223 231 124 110 137 230 225 201 188 183 189 197 206 212 233 225 244 261 270 226 182 233 261 225 232 231 286 316 346 326 326 352 23 51 62 66 85 121 140 119 176 120
251 244 218 221 241 275 286 36 9 336 255 213 210 209 152 165 223 236 218 197 173 199 193 191 188 206 223 227 222 235 286 163 198 226 260 186 235 243 184 251 359 199 209 219 231 205 193 177 200 207 205 187 206 156
243 270 230 229 218 227 259 167 177 219 247 232 107 123 210 190 222 224 199 215 189 152 145 133 145 204 164 195 214 224 292 275 313 321 51 36 3 9 47 67 346 142 66 44 169 221 254 319 39 83 88 91 102 110
235 239 250 263 264 270 246 187 195 203 232 128 152 158 277 216 245 178 178 129 78 125 137 144 162 223 91 248 217 223 225 256 264 85 162 183 225 286 297 337 24 52 63 67 58 65 72 75 73 74 69 65 67 72
231 196 234 234 214 225 236 210 200 74 75 114 128 10 319 323 287 288 124 139 125 155 205 194 160 145 177 197 230 254 246 236 238 116 139 158 186 200 115 105 89 75 80 79 75 66 54 65 61 64 68 68 69 72
284 147 199 213 230 231 248 292 55 79 79 99 172 158 236 240 307 250 208 218 165 139 162 211 171 208 188 199 186 200 267 297 244 180 139 143 152 134 126 129 129 115 100 93 89 89 91 85 85 83 82 82 78 82
206 199 218 243 254 18 357 59 339 306 188 118 314 315 315 55 233 231 203 156 234 150 184 172 170 223 214 181 181 185 137 141 103 107 120 134 151 155 131 132 127 118 114 110 108 106 103 104 104 103 100 101 101 99
213 220 226 203 114 95 318 98 36 338 182 197 225 184 225 174 201 246 222 179 177 171 176 232 185 192 211 154 131 122 113 118 122 116 111 115 124 120 124 141 129 129 129 131 133 133 130 129 128 132 137 142 143 137